User: anonymous   Login
Location: PFO Observatory
(45.2937°N, 66.0991°W)
Time: 04:06:50
(UTC-03:00)
Language:

Cosmos 1151 Rocket - Orbit

View from above orbital plane
View from above orbital plane
View from above satellite
View from above satellite

Ground track
Ground track

The orbit data is extracted from the following two-line orbital elements,

1 11672U 80005B   17118.95140440 +.00000114 +00000-0 +97231-5 0  9998
2 11672 082.5129 125.8540 0018170 118.1077 242.1980 14.87860590994953
Epoch (UTC): 28 April 2017 22:50:01
Eccentricity: 0.0018170
inclination: 82.5129°
perigee height: 592 km
apogee height: 617 km
right ascension of ascending node: 125.8540°
argument of perigee: 118.1077°
revolutions per day: 14.87860590
mean anomaly at epoch: 242.1980°
orbit number at epoch: 99495

The dashed part of the orbit path shows where the satellite is in the earth's shadow,  

DLR